This demonstration page uses our WeatherBlox Daily Observations layout. Learn more.

Left ArrowRight Arrow

Hourly Observations for October 2, 2020

Temp ( °F °C ) Dew Point ( °F °C ) Humidity (%) Winds ( mph kmh ) Pressure ( in mb ) Visibility ( mi km ) Precip ( " mm )
12:15 am 00:15 Clear 41 4.8 31 -0.6 68 68 N N/A 30.33 1027 10 16 N/A
12:35 am 00:35 Clear 41 4.8 30 -1.1 66 66 N N/A 30.34 1027 10 16 N/A
12:55 am 00:55 Clear 42 5.4 31 -0.7 65 65 N N/A 30.33 1027 10 16 N/A
1:15 am 01:15 Clear 43 6 31 -0.5 63 63 S 3 6 30.32 1027 10 16 N/A
1:35 am 01:35 Clear 42 5.5 32 -0.1 68 68 N N/A 30.33 1027 10 16 N/A
1:55 am 01:55 Clear 42 5.5 31 -0.5 66 66 N N/A 30.33 1027 10 16 N/A
2:15 am 02:15 Clear 43 5.9 31 -0.5 64 64 N N/A 30.32 1027 10 16 N/A
2:35 am 02:35 Clear 41 5 31 -0.3 69 69 N N/A 30.32 1027 10 16 N/A
2:55 am 02:55 Clear 42 5.6 32 -0.1 67 67 N N/A 30.33 1027 10 16 N/A
3:15 am 03:15 Clear 42 5.3 32 undefined 69 69 N N/A 30.33 1027 10 16 N/A
3:35 am 03:35 Clear 42 5.3 32 -0.1 68 68 N N/A 30.32 1027 10 16 N/A
3:55 am 03:55 Clear 40 4.2 32 undefined 74 74 E 5 7 30.32 1027 10 16 N/A
4:15 am 04:15 Clear 39 4.1 32 undefined 75 75 ESE 3 6 30.30 1026 10 16 N/A
4:35 am 04:35 Clear 39 4.1 31 -0.3 73 73 SSE 5 7 30.30 1026 10 16 N/A
4:55 am 04:55 Clear 36 2 30 -1.2 80 80 SE 3 6 30.32 1027 10 16 N/A
5:15 am 05:15 Clear 36 2.3 31 -0.7 81 81 SSE 5 7 30.31 1027 10 16 N/A
5:35 am 05:35 Clear 37 2.6 30 -1.2 76 76 SE 3 6 30.30 1026 10 16 N/A
5:55 am 05:55 Clear 34 1.3 29 -1.5 82 82 SE 5 7 30.31 1027 10 16 N/A
6:15 am 06:15 Clear 35 1.5 30 -1.3 82 82 SE 5 7 30.30 1026 10 16 N/A
6:35 am 06:35 Clear 34 1 30 -1.3 85 85 SE 5 7 30.32 1027 10 16 N/A
6:55 am 06:55 Clear 36 2.1 30 -1.1 80 80 SSE 3 6 30.32 1027 10 16 N/A
7:15 am 07:15 Clear 34 1.3 29 -1.6 81 81 SE 3 6 30.30 1026 10 16 N/A
7:35 am 07:35 Clear 32 0.1 28 -2.1 85 85 SE 5 7 30.31 1027 10 16 N/A
7:55 am 07:55 Sunny 34 1.1 30 -1.2 85 85 SE 6 9 30.33 1027 10 16 N/A
8:15 am 08:15 Sunny 35 1.7 31 -0.6 85 85 ESE 3 6 30.31 1026 10 16 N/A
8:35 am 08:35 Sunny 38 3.3 32 0.1 80 80 SE 6 9 30.29 1026 10 16 N/A
8:55 am 08:55 Sunny 40 4.5 33 0.7 77 77 SE 7 11 30.27 1025 10 16 N/A
9:15 am 09:15 Sunny 44 6.7 34 1.2 68 68 SE 9 15 30.24 1024 10 16 N/A
9:35 am 09:35 Sunny 47 8.4 34 1 60 60 SSE 7 11 30.23 1024 10 16 N/A
9:55 am 09:55 Sunny 50 10 34 1 54 54 SSE 10 17 30.20 1023 10 16 N/A
10:15 am 10:15 Sunny 53 11.6 33 0.5 47 47 SSE 13 20 30.18 1022 10 16 N/A
10:35 am 10:35 Sunny 55 13 32 0.1 41 41 SSE 10 17 30.17 1022 10 16 N/A
10:55 am 10:55 Sunny 58 14.3 31 -0.4 37 37 SSE 13 20 30.15 1021 10 16 N/A
11:15 am 11:15 Sunny 59 15.1 31 -0.8 34 34 SSE 14 22 30.12 1020 10 16 N/A
11:35 am 11:35 Sunny 60 15.6 30 -1 32 32 SSE 15 24 30.10 1019 10 16 N/A
11:55 am 11:55 Sunny 62 16.4 31 -0.5 32 32 SSE 13 20 30.09 1019 10 16 N/A
12:15 pm 12:15 Sunny 63 17.4 30 -1.2 28 28 SSE 12 19 30.07 1018 10 16 N/A
12:35 pm 12:35 Sunny 64 17.8 30 -1 28 28 S 13 20 30.06 1018 10 16 N/A
12:55 pm 12:55 Sunny 65 18.5 31 -0.6 28 28 SSE 10 17 30.04 1017 10 16 N/A
1:15 pm 13:15 Sunny 66 19.1 31 -0.7 26 26 S 14 22 30.02 1017 10 16 N/A
1:35 pm 13:35 Sunny 66 19.1 31 -0.5 27 27 S 15 24 30.02 1017 10 16 N/A
1:55 pm 13:55 Sunny 67 19.4 32 undefined 27 27 S 14 22 30.00 1016 10 16 N/A
2:15 pm 14:15 Sunny 67 19.6 32 undefined 27 27 SSE 13 20 29.99 1016 10 16 N/A
2:35 pm 14:35 Sunny 68 20 32 undefined 26 26 S 13 20 29.98 1015 10 16 N/A
2:55 pm 14:55 Sunny 69 20.7 32 undefined 25 25 S 10 17 29.96 1015 10 16 N/A
3:15 pm 15:15 Sunny 70 21.1 32 undefined 25 25 S 9 15 29.94 1014 10 16 N/A
3:35 pm 15:35 Sunny 71 21.5 32 0.1 24 24 SSE 12 19 29.92 1013 10 16 N/A
3:55 pm 15:55 Sunny 71 21.5 33 0.3 24 24 S 9 15 29.92 1013 10 16 N/A
4:15 pm 16:15 Sunny 71 21.6 33 0.3 24 24 S 9 15 29.90 1013 10 16 N/A
4:35 pm 16:35 Sunny 71 21.6 33 0.3 24 24 S 10 17 29.89 1012 10 16 N/A
4:55 pm 16:55 Sunny 70 21.3 32 0.1 24 24 S 9 15 29.88 1012 10 16 N/A
5:15 pm 17:15 Sunny 71 21.5 33 0.5 25 25 S 10 17 29.87 1012 10 16 N/A
5:35 pm 17:35 Sunny 70 21 33 0.6 26 26 SSE 8 13 29.87 1011 10 16 N/A
5:55 pm 17:55 Sunny 69 20.7 33 0.8 27 27 SSE 7 11 29.86 1011 10 16 N/A
6:15 pm 18:15 Sunny 68 20 35 1.6 29 29 SE 5 7 29.87 1011 10 16 N/A
6:35 pm 18:35 Sunny 67 19.6 35 1.5 30 30 SSE 7 11 29.86 1011 10 16 N/A
6:55 pm 18:55 Sunny 65 18.2 36 2 34 34 N N/A 29.89 1012 10 16 N/A
7:15 pm 19:15 Sunny 64 17.7 35 1.5 34 34 ESE 5 7 29.89 1012 10 16 N/A
7:35 pm 19:35 Clear 59 15.2 36 2.2 42 42 SE 5 7 29.92 1013 10 16 N/A
7:55 pm 19:55 Clear 61 16.2 36 2 39 39 SE 6 9 29.90 1012 7 11 N/A
8:15 pm 20:15 Clear 60 15.6 36 2.3 41 41 SSE 3 6 29.91 1013 7 11 N/A
8:35 pm 20:35 Partly Cloudy 60 15.4 37 2.5 42 42 N N/A 29.92 1013 10 16 N/A
8:55 pm 20:55 Clear 60 15.5 36 2.2 41 41 ESE 5 7 29.93 1013 10 16 N/A
9:15 pm 21:15 Clear 56 13.4 38 3.3 51 51 N N/A 29.94 1014 10 16 N/A
9:35 pm 21:35 Mostly Cloudy 55 13 37 2.9 51 51 N N/A 29.95 1014 10 16 N/A
9:55 pm 21:55 Cloudy 57 13.7 38 3.3 50 50 NNW 12 19 29.96 1015 10 16 N/A
10:15 pm 22:15 Mostly Cloudy 56 13.5 42 5.5 59 59 N 26 43 30.01 1016 10 16 N/A
10:35 pm 22:35 Mostly Cloudy 55 12.7 43 6 64 64 NNE 22 35 30.00 1016 10 16 N/A
10:55 pm 22:55 Mostly Cloudy 53 11.4 44 6.6 73 73 NNE 17 28 30.01 1016 10 16 N/A
11:15 pm 23:15 Partly Cloudy 51 10.7 44 6.5 75 75 NE 15 24 30.03 1017 10 16 N/A
11:35 pm 23:35 Partly Cloudy 51 10.3 43 6.2 76 76 NNE 13 20 30.02 1017 10 16 N/A
11:55 pm 23:55 Clear 49 9.7 43 6 78 78 NNE 7 11 30.05 1017 10 16 N/A

Powered by AerisWeather